Date,TemperatureHighF,TemperatureAvgF,TemperatureLowF,DewpointHighF,DewpointAvgF,DewpointLowF,HumidityHigh,HumidityAvg,HumidityLow,PressureMaxIn,PressureMinIn,WindSpeedMaxMPH,WindSpeedAvgMPH,GustSpeedMaxMPH,PrecipitationSumIn
2013-1-1,31.7,21.1,2.6,29.1,17.9,-0.3,93,87,80,28.92,28.92,9,3,17,0.00
2013-1-2,23.9,17.0,10.6,20.7,14.3,6.5,93,89,81,28.92,28.92,6,2,15,0.00
2013-1-3,27.4,22.8,10.5,25.0,20.4,6.4,93,90,83,28.92,28.92,9,5,14,0.00
2013-1-4,32.8,29.7,26.9,26.3,24.0,21.1,93,80,68,28.92,28.92,10,5,23,0.00
2013-1-5,32.9,29.5,22.0,27.9,25.0,17.3,88,83,73,28.92,28.92,9,3,22,0.01
2013-1-6,36.0,32.1,28.2,31.6,28.5,23.9,94,87,79,28.92,28.92,10,6,17,0.00
2013-1-7,33.3,26.2,21.1,31.8,23.9,17.8,94,91,84,28.92,28.92,8,2,15,0.01
2013-1-8,34.7,28.4,24.0,26.8,23.2,20.1,89,81,70,28.92,28.92,7,1,9,0.00
2013-1-9,45.8,35.5,25.3,37.8,28.7,19.9,86,76,61,28.92,28.92,14,6,23,0.01
2013-1-10,37.2,33.8,28.4,31.4,29.0,25.0,90,83,75,28.92,28.92,7,2,20,0.00
2013-1-11,38.4,35.6,30.8,36.2,31.1,26.6,93,84,72,28.92,28.92,21,13,32,0.19
2013-1-12,47.6,42.1,37.8,46.0,40.6,36.2,95,94,93,28.92,28.92,11,6,18,0.00
2013-1-13,55.1,49.2,43.2,52.3,47.3,41.6,94,93,90,28.92,28.92,19,9,29,0.00
2013-1-14,52.4,38.0,28.3,50.4,33.6,23.7,94,84,72,28.92,28.92,13,5,21,0.02
2013-1-15,31.5,28.6,26.1,25.2,23.7,22.5,88,82,73,28.92,28.92,3,0,6,0.00
2013-1-16,32.8,29.2,27.4,29.3,26.8,23.2,94,91,81,28.92,28.92,11,6,16,0.00
2013-1-17,33.1,25.3,17.5,29.5,21.6,14.9,92,86,78,28.92,28.92,10,3,17,0.00
2013-1-18,27.6,17.7,3.5,16.6,12.0,1.0,93,79,61,28.92,28.92,18,6,26,0.00
2013-1-19,45.2,38.0,27.8,31.5,24.3,16.1,64,58,52,28.92,28.92,18,12,26,0.00
2013-1-20,44.8,31.1,19.1,34.0,21.6,11.9,89,68,51,28.92,28.92,18,8,27,0.01
2013-1-21,21.8,18.0,9.0,18.4,12.8,6.4,92,81,67,28.92,28.92,6,2,12,0.00
2013-1-22,13.8,9.1,5.0,10.4,1.4,-1.3,86,71,57,28.92,28.92,7,4,19,0.00
2013-1-23,9.4,5.2,0.3,5.8,0.8,-4.7,88,82,74,28.92,28.92,5,1,11,0.00
2013-1-24,13.0,6.6,-2.2,7.8,2.8,-5.4,90,84,71,28.92,28.92,7,3,16,0.00
2013-1-25,14.4,10.6,2.4,10.9,7.6,-0.3,91,87,78,28.92,28.92,5,1,14,0.00
2013-1-26,18.6,8.1,-3.1,14.2,4.9,-5.8,92,87,76,28.92,28.92,3,0,5,0.03
2013-1-27,24.0,17.0,7.0,19.5,13.9,4.7,93,88,77,28.92,28.92,4,1,8,0.07
2013-1-28,37.6,29.6,21.9,36.3,26.5,15.7,95,88,75,28.92,28.92,17,8,26,0.01
2013-1-29,48.2,40.3,34.3,46.6,38.9,33.0,95,95,94,28.92,28.92,11,4,18,0.33
2013-1-30,57.7,52.6,48.2,54.8,50.4,46.6,94,92,89,28.92,28.92,25,16,38,0.18
2013-1-31,53.5,32.1,19.1,51.5,27.5,17.2,94,83,66,28.92,28.92,17,8,36,0.58